Miscellaneous Local Product
Issued by NWS Hastings, NE

Home | Current Version | Previous Version | Graphics & Text | Print | Product List | Glossary On
Versions: 1 2 3 4 5 6 7 8 9 10 11 12 13 14 15 16 17 18 19 20 21 22 23 24 25 26 27 28 29 30 31 32 33 34 35 36 37 38 39 40 41 42 43 44 45 46 47 48 49 50
036
AXUS43 KGID 231702
MISGRI

GID CWA HOURLY WEATHER ROUNDUP
NATIONAL WEATHER SERVICE HASTINGS NE
1100 AM CST FRI FEB 23 2018

NOTE: "FAIR" INDICATES FEW OR NO CLOUDS BELOW 12,000 FEET WITH NO
SIGNIFICANT WEATHER AND/OR OBSTRUCTIONS TO VISIBILITY.

...SOUTH CENTRAL NEBRASKA...

CITY           SKY/WX    TMP DP  RH WIND       PRES   REMARKS
GRAND ISLAND   CLOUDY    19  16  88 CALM      30.31R
KEARNEY        PTSUNNY   25  19  78 N6        30.29R WCI  18
HASTINGS       SUNNY     25  20  81 VRB3      30.29R
ORD            CLOUDY    20  17  88 NW10      30.25R WCI   9
YORK           SUNNY     21  21 100 N6        30.32R WCI  14
AURORA         CLOUDY    18  17  93 N5        30.30S FOG     WCI  11
LEXINGTON      SUNNY     19  15  83 NE3       30.27R
HOLDREGE       SUNNY     26  24  91 CALM      30.27R
HEBRON         SUNNY     28  24  84 N6        30.30F WCI  22

...NEBRASKA PANHANDLE...

CITY           SKY/WX    TMP DP  RH WIND       PRES   REMARKS
CHADRON        SUNNY      8   2  76 W7        30.21S WCI  -3
ALLIANCE       SUNNY     11   9  92 CALM      30.15R
SCOTTSBLUFF    MOSUNNY   19  11  70 NW3       30.14F
SIDNEY         SUNNY     23  12  62 NE5       30.12S WCI  17

...WESTERN AND NORTH CENTRAL NEBRASKA...

CITY           SKY/WX    TMP DP  RH WIND       PRES   REMARKS
VALENTINE      SUNNY     13   4  67 NW8       30.23F WCI   2
AINSWORTH      SUNNY     13   9  81 NW10      30.22S WCI   0
ONEILL         CLOUDY    17  14  90 NW9       30.26R WCI   5
BROKEN BOW     CLOUDY    19  15  84 N10       30.23R WCI   7
IMPERIAL       SUNNY     25  14  63 NE8       30.19R WCI  16
NORTH PLATTE   MIX PCPN  20  12  71 N9        30.21S WCI   9
MCCOOK         SUNNY     24  20  84 N5        30.24R WCI  18

...EASTERN NEBRASKA...

CITY           SKY/WX    TMP DP  RH WIND       PRES   REMARKS
NORFOLK        CLOUDY    21  18  88 N14       30.25S WCI   8
SO SIOUX CITY  CLOUDY    20  17  88 NW16      30.29S WCI   6
TEKAMAH        PTSUNNY   22  18  85 NW8       30.33R WCI  12
COLUMBUS       CLOUDY    28  21  75 NW8       30.32R WCI  20
ALBION         CLOUDY    24  19  81 NW10      30.26S WCI  14
OMAHA EPPLEY   MOSUNNY   27  21  78 N8        30.33R WCI  19
OFFUTT AFB     MIX PCPN  28  23  80 CALM      30.32R
MILLARD        MOSUNNY   28  23  79 N3        30.33R
LINCOLN        MOSUNNY   28  22  78 NW3       30.34R
NEBRASKA CITY  MOSUNNY   29  27  93 NW3       30.32R
BEATRICE       SUNNY     29  24  81 CALM      30.31S
FALLS CITY     MOSUNNY   32  32 100 NW8       30.31S WCI  25

...NORTHERN KANSAS...

CITY           SKY/WX    TMP DP  RH WIND       PRES   REMARKS
GOODLAND       SUNNY     30  21  69 E6        30.16S WCI  24
HILL CITY      CLOUDY    25  25 100 NW3       30.27S
NORTON         CLOUDY    25  21  86 CALM      30.25R
PHILLIPSBURG   CLOUDY    27  27 100 NW3       30.29S
SMITH CENTER   PTSUNNY   27  27 100 CALM      30.29S
BELOIT         SUNNY     27  23  86 CALM      30.31R
HAYS           CLOUDY    28  26  92 CALM      30.28S
RUSSELL        CLOUDY    31  27  85 CALM      30.27R
CONCORDIA      SUNNY     28  23  81 NW5       30.30R WCI  23
SALINA         MOSUNNY   35  28  75 N7        30.31S WCI  29
TOPEKA         CLOUDY    35  29  78 N5        30.31F WCI  31



USA.gov is the U.S. government's official web portal to all federal, state and local government web resources and services.